Current conditions around Wisconsin

 

						ASUS43 KMKX 252110
RWRWI

WISCONSIN REGIONAL WEATHER ROUNDUP
NATIONAL WEATHER SERVICE MILWAUKEE/SULLIVAN WI
300 PM CST SUN FEB 25 2018

NOTE: "FAIR" INDICATES FEW OR NO CLOUDS BELOW 12,000 FEET WITH NO
SIGNIFICANT WEATHER AND/OR OBSTRUCTIONS TO VISIBILITY.

WIZ001-002-006>008-014>016-023>028-252200-
NORTHWEST WISCONSIN

CITY           SKY/WX    TMP DP  RH WIND       PRES   REMARKS
SUPERIOR ARPT  CLOUDY    30  18  61 W20G29    29.64R WCI  17
ASHLAND        CLOUDY    27  19  72 SW18      29.62R WCI  14
HAYWARD        FAIR      28  18  66 W10G20    29.66R WCI  19
SIREN          CLOUDY    26  17  68 W15G26    29.73R WCI  14
CUMBERLAND     FAIR      27  14  59 W21       29.71R WCI  13
RICE LAKE      FAIR      26  17  66 W15G21    29.75R WCI  14
CHETEK         FAIR      28  16  62 W12G21    29.74R WCI  18
LADYSMITH      FAIR      27  17  64 W13G21    29.71R WCI  17
EAU CLAIRE     FAIR      27  16  63 W21G30    29.78R WCI  13
MENOMONIE      FAIR      29  18  62 W15G22    29.78R WCI  18
NEW RICHMOND   FAIR      28  18  66 W20G26    29.77R WCI  14
OSCEOLA        CLOUDY    28  19  69 W15G23    29.81R WCI  16
$$

WIZ003>005-009-010-017-018-252200-
NORTH CENTRAL WISCONSIN

CITY           SKY/WX    TMP DP  RH WIND       PRES   REMARKS
MANITOWISH WTR CLOUDY    24  18  78 W12G30    29.58R WCI  12
ARBOR VITAE    FAIR      25  18  77 W14G28    29.60R WCI  13
WOODRUFF       FAIR      25  18  77 W14G28    29.60R WCI  13
RHINELANDER    CLOUDY    25  18  74 W22G32    29.62R WCI  10
EAGLE RIVER    CLOUDY    24  17  74 SW20G25   29.58R WCI   9
LAND O LAKES   CLOUDY    25  18  74 W12G26    29.57R WCI  14
PHILLIPS       CLOUDY    25  17  70 SW15G22   29.64R WCI  13
TOMAHAWK       CLOUDY    27  17  66 W9G21     29.65R WCI  17
MEDFORD        FAIR      25  15  65 W12G23    29.69R WCI  15
MERRILL        FAIR      29  16  60 W18G29    29.68R WCI  16
$$

WIZ029-030-035-036-043>047-252200-
CENTRAL WISCONSIN

CITY           SKY/WX    TMP DP  RH WIND       PRES   REMARKS
WAUSAU         FAIR      28  16  60 W15G24    29.69R WCI  16
MOSINEE        MOSUNNY   28  19  69 SW18G28   29.72R WCI  16
MARSHFIELD     FAIR      28  18  66 W20G28    29.72R WCI  15
STEVENS POINT  PTSUNNY   28  20  71 SW14      29.74R WCI  17
WAUPACA        FAIR      36  23  58 W20G31    29.76R WCI  25
WAUTOMA        FAIR      36  22  56 SW22G31   29.78R WCI  25
WISC RAPIDS    FAIR      31  20  63 MISG      29.77R
CAMP DOUGLAS   MOSUNNY   34  25  69 W15G24    29.80R WCI  24
$$

WIZ011>013-019>022-031-037>040-048>050-252200-
NORTHEAST WISCONSIN

CITY           SKY/WX    TMP DP  RH WIND       PRES   REMARKS
ANTIGO         PTSUNNY   26  18  72 W22       29.66R WCI  11
SHAWANO        CLOUDY    34  23  63 W18G28    29.72R WCI  23
OCONTO         FAIR      32  22  65 W24G37    29.71R WCI  19
STURGEON BAY   FAIR      33  21  61 SW20G38   29.70R WCI  21
GREEN BAY      FAIR      36  22  56 W20G29    29.73R WCI  25
MANITOWOC      FAIR      37  21  52 SW20G29   29.75R WCI  27
APPLETON       MOSUNNY   36  18  48 SW18G29   29.73R WCI  25
CLINTONVILLE   CLOUDY    32  22  66 W13G22    29.74R WCI  22
OSHKOSH        FAIR      38  22  52 SW16G30   29.76R WCI  29
$$

WIZ032>034-041-042-053>061-252200-
SOUTHWEST WISCONSIN

CITY           SKY/WX    TMP DP  RH WIND       PRES   REMARKS
LA CROSSE      FAIR      34  23  64 SW9G20    29.87R WCI  27
SPARTA         FAIR      33  23  67 SW9G20    29.84R WCI  25
VIROQUA        FAIR      32  25  76 W20       29.84R WCI  20
BOSCOBEL       FAIR      39  22  50 SW16G29   29.90R WCI  30
PRAIRIE DU CHI FAIR      37  23  57 W15       29.92R WCI  27
PLATTEVILLE    FAIR      37  28  69 W23G29    29.91R WCI  26
$$

WIZ056-057-062-063-064-067-068-252200-
SOUTH CENTRAL WISCONSIN

CITY           SKY/WX    TMP DP  RH WIND       PRES   REMARKS
REEDSBURG      FAIR      37  22  55 W20G26    29.83R WCI  26
BARABOO/DELLS  FAIR      37  22  54 SW16G22   29.82R WCI  28
LONE ROCK      FAIR      39  25  57 SW12      29.87R WCI  32
MINERAL POINT  FAIR      37  28  70 SW21      29.87R WCI  27
MADISON        FAIR      38  23  55 SW14G28   29.87R WCI  30
MIDDLETON      FAIR      40  24  54 W20G32    29.85R WCI  30
WATERTOWN      FAIR      38  23  55 SW16G25   29.85R WCI  29
MONROE         FAIR      39  23  52 W30G38    29.89R WCI  27
JANESVILLE     MOSUNNY   43  25  49 SW25G31   29.89R
$$

WIZ051-052-058>065-066-070>072-252200-
SOUTHEAST WISCONSIN

CITY           SKY/WX    TMP DP  RH WIND       PRES   REMARKS
MILWAUKEE      FAIR      41  21  44 W28G43    29.87R
WAUKESHA       SUNNY     37  21  52 SW22G33   29.86R WCI  27
MILWAUKEE/TIMM SUNNY     39  19  45 SW26G32   29.85R WCI  28
RACINE         FAIR      42  22  44 W17G40    29.89R
BURLINGTON     FAIR      39  25  57 SW22G36   29.90R WCI  29
KENOSHA        FAIR      43  25  49 W22G38    29.89R
FOND DU LAC    FAIR      38  20  48 SW17G25   29.79R WCI  28
SHEBOYGAN      FAIR      38  24  57 SW24G36   29.78R WCI  27
WEST BEND      FAIR      37  23  56 W17G28    29.81R WCI  28
JUNEAU         FAIR      37  23  58 SW21      29.84S WCI  26
$$

LSZ147-162-252200-
LAKE SUPERIOR

STATION/POSITION TIME  TEMP    WIND        PRES    WAVE
                       AIR SEA DIR/SP/G            HT/PER
                 (UTC) (F)     (DEG/KT/KT) (MB)    (FT/S)
DEVILS ISLAND    2100   28     240/ 32/ 38 1001.9R
SAXON HARBOR     2030   28     240/ 14/ 20 1002.0R
$$

LMZ867-665-643>646-252200-
LAKE MICHIGAN

STATION/POSITION TIME  TEMP    WIND        PRES    WAVE
                       AIR SEA DIR/SP/G            HT/PER
                 (UTC) (F)     (DEG/KT/KT) (MB)    (FT/S)
NORTHPORT PIER   2101   32                 1004.4
KEWAUNEE LAKESHO 2042   36     240/ 15/ 24 1005.8R
SHEBOYGAN LAKESH 2100   38     240/ 20/ 27 1009.1R
PORT WASHINGTON  2040   40     260/ 19/ 27 1010.8R
KENOSHA   LAKESH 2100   43     240/ 13/ 24 1012.9
$$

TC  - TEMPERATURE IN CELSIUS
VSB - VISIBILITY IN STATUTE MILES
WCI - WIND CHILL INDEX
HX  - HEAT INDEX




ASUS43 KMKX 252120
RWRWI

WISCONSIN REGIONAL WEATHER ROUNDUP
NATIONAL WEATHER SERVICE MILWAUKEE/SULLIVAN WI
300 PM CST SUN FEB 25 2018

NOTE: "FAIR" INDICATES FEW OR NO CLOUDS BELOW 12,000 FEET WITH NO
SIGNIFICANT WEATHER AND/OR OBSTRUCTIONS TO VISIBILITY.

WIZ001-002-006>008-014>016-023>028-252200-
NORTHWEST WISCONSIN

CITY           SKY/WX    TMP DP  RH WIND       PRES   REMARKS
SUPERIOR ARPT  CLOUDY    30  18  60 W15G24    29.65R WCI  19
ASHLAND        CLOUDY    27  19  72 SW18      29.62R WCI  14
HAYWARD        FAIR      28  18  66 W10G20    29.66R WCI  19
SIREN          CLOUDY    26  17  68 W15G26    29.73R WCI  14
CUMBERLAND     FAIR      27  14  59 W21       29.71R WCI  13
RICE LAKE      FAIR      26  17  66 W15G21    29.75R WCI  14
CHETEK         FAIR      28  16  62 W12G21    29.74R WCI  18
LADYSMITH      FAIR      27  17  64 W13G21    29.71R WCI  17
EAU CLAIRE     FAIR      27  16  63 W21G30    29.78R WCI  13
MENOMONIE      FAIR      29  19  64 SW24G30   29.80R WCI  15
NEW RICHMOND   FAIR      28  18  66 W20G26    29.77R WCI  14
OSCEOLA        CLOUDY    28  19  69 W15G23    29.81R WCI  16
$$

WIZ003>005-009-010-017-018-252200-
NORTH CENTRAL WISCONSIN

CITY           SKY/WX    TMP DP  RH WIND       PRES   REMARKS
MANITOWISH WTR CLOUDY    24  18  78 W12G30    29.58R WCI  12
ARBOR VITAE    FAIR      25  18  77 W14G28    29.60R WCI  13
WOODRUFF       FAIR      25  18  77 W14G28    29.60R WCI  13
RHINELANDER    CLOUDY    25  18  74 W22G32    29.62R WCI  10
EAGLE RIVER    CLOUDY    24  17  74 W20G25    29.59R WCI   9
LAND O LAKES   CLOUDY    25  18  73 SW12G24   29.59R WCI  14
PHILLIPS       PTSUNNY   26  17  67 SW13      29.65R WCI  15
TOMAHAWK       CLOUDY    27  17  66 W9G21     29.65R WCI  17
MEDFORD        FAIR      25  15  65 W12G23    29.69R WCI  15
MERRILL        FAIR      29  16  59 W23G29    29.70R WCI  15
$$

WIZ029-030-035-036-043>047-252200-
CENTRAL WISCONSIN

CITY           SKY/WX    TMP DP  RH WIND       PRES   REMARKS
WAUSAU         FAIR      28  16  60 W15G24    29.69R WCI  16
MOSINEE        MOSUNNY   28  19  69 SW18G28   29.72R WCI  16
MARSHFIELD     FAIR      28  18  66 W20G28    29.72R WCI  15
STEVENS POINT  PTSUNNY   28  20  71 SW14      29.74R WCI  17
WAUPACA        FAIR      36  23  58 W20G31    29.76R WCI  25
WAUTOMA        FAIR      36  22  56 SW22G31   29.78R WCI  25
WISC RAPIDS    FAIR      31  20  63 MISG      29.77R
CAMP DOUGLAS   MOSUNNY   34  25  69 W15G24    29.80R WCI  24
$$

WIZ011>013-019>022-031-037>040-048>050-252200-
NORTHEAST WISCONSIN

CITY           SKY/WX    TMP DP  RH WIND       PRES   REMARKS
ANTIGO         PTSUNNY   26  18  72 W22       29.66R WCI  11
SHAWANO        PTSUNNY   33  22  64 W15G24    29.73R WCI  23
OCONTO         FAIR      32  22  65 W24G37    29.71R WCI  19
STURGEON BAY   FAIR      33  21  61 SW20G38   29.70R WCI  21
GREEN BAY      FAIR      36  22  56 W20G29    29.73R WCI  25
MANITOWOC      FAIR      37  21  52 SW20G29   29.75R WCI  27
APPLETON       MOSUNNY   36  18  48 SW18G29   29.73R WCI  25
CLINTONVILLE   CLOUDY    32  22  66 W15G29    29.75R WCI  22
OSHKOSH        FAIR      38  22  52 SW16G30   29.76R WCI  29
$$

WIZ032>034-041-042-053>061-252200-
SOUTHWEST WISCONSIN

CITY           SKY/WX    TMP DP  RH WIND       PRES   REMARKS
LA CROSSE      FAIR      34  23  64 SW9G20    29.87R WCI  27
SPARTA         FAIR      33  23  67 SW9G20    29.84R WCI  25
VIROQUA        FAIR      32  25  76 W20       29.84R WCI  20
BOSCOBEL       FAIR      39  22  50 SW16G29   29.90R WCI  30
PRAIRIE DU CHI FAIR      37  23  57 W15       29.92R WCI  27
PLATTEVILLE    FAIR      37  28  69 W23G29    29.91R WCI  26
$$

WIZ056-057-062-063-064-067-068-252200-
SOUTH CENTRAL WISCONSIN

CITY           SKY/WX    TMP DP  RH WIND       PRES   REMARKS
REEDSBURG      FAIR      37  22  56 SW17G28   29.84R WCI  27
BARABOO/DELLS  FAIR      37  22  54 SW16G22   29.82R WCI  28
LONE ROCK      FAIR      39  25  57 SW12      29.87R WCI  32
MINERAL POINT  FAIR      37  28  70 SW21      29.87R WCI  27
MADISON        FAIR      38  23  55 SW14G28   29.87R WCI  30
MIDDLETON      FAIR      40  24  54 W20G32    29.85R WCI  30
WATERTOWN      FAIR      38  23  55 SW16G25   29.85R WCI  29
MONROE         FAIR      39  23  52 W30G38    29.89R WCI  27
JANESVILLE     MOSUNNY   43  25  49 SW25G31   29.89R
$$

WIZ051-052-058>065-066-070>072-252200-
SOUTHEAST WISCONSIN

CITY           SKY/WX    TMP DP  RH WIND       PRES   REMARKS
MILWAUKEE      FAIR      41  21  44 W28G43    29.87R
WAUKESHA       SUNNY     37  21  52 SW22G33   29.86R WCI  27
MILWAUKEE/TIMM SUNNY     39  19  45 SW26G32   29.85R WCI  28
RACINE         FAIR      42  22  44 W17G40    29.89R
BURLINGTON     FAIR      39  25  57 SW22G36   29.90R WCI  29
KENOSHA        FAIR      43  25  49 W22G38    29.89R
FOND DU LAC    FAIR      38  20  48 SW17G25   29.79R WCI  28
SHEBOYGAN      FAIR      38  24  57 SW24G36   29.78R WCI  27
WEST BEND      FAIR      37  23  56 W17G28    29.81R WCI  28
JUNEAU         FAIR      37  23  58 SW21      29.84S WCI  26
$$

LSZ147-162-252200-
LAKE SUPERIOR

STATION/POSITION TIME  TEMP    WIND        PRES    WAVE
                       AIR SEA DIR/SP/G            HT/PER
                 (UTC) (F)     (DEG/KT/KT) (MB)    (FT/S)
DEVILS ISLAND    2100   28     240/ 32/ 38 1001.9R
SAXON HARBOR     2100   28     240/  8/ 24 1003.0
$$

LMZ867-665-643>646-252200-
LAKE MICHIGAN

STATION/POSITION TIME  TEMP    WIND        PRES    WAVE
                       AIR SEA DIR/SP/G            HT/PER
                 (UTC) (F)     (DEG/KT/KT) (MB)    (FT/S)
NORTHPORT PIER   2101   32                 1004.4
KEWAUNEE LAKESHO 2100   37     230/ 11/ 22 1006.2
SHEBOYGAN LAKESH 2100   38     240/ 20/ 27 1009.1R
PORT WASHINGTON  2040   40     260/ 19/ 27 1010.8R
KENOSHA   LAKESH 2100   43     240/ 13/ 24 1012.9
$$

TC  - TEMPERATURE IN CELSIUS
VSB - VISIBILITY IN STATUTE MILES
WCI - WIND CHILL INDEX
HX  - HEAT INDEX